Date,TemperatureHighF,TemperatureAvgF,TemperatureLowF,DewpointHighF,DewpointAvgF,DewpointLowF,HumidityHigh,HumidityAvg,HumidityLow,PressureMaxIn,PressureMinIn,WindSpeedMaxMPH,WindSpeedAvgMPH,GustSpeedMaxMPH,PrecipitationSumIn
2013-1-1,33.5,28.0,20.1,32.7,25.2,16.3,97,89,79,30.28,30.07,12,5,14,0.01
2013-1-2,28.6,20.0,12.3,19.3,15.4,10.1,93,83,63,30.33,30.24,6,1,7,0.01
2013-1-3,39.5,25.3,14.4,31.9,21.9,12.0,95,87,72,30.43,30.26,6,1,7,0.05
2013-1-4,40.4,28.1,19.1,29.4,24.4,17.4,96,87,62,30.49,30.36,7,1,10,0.01
2013-1-5,40.5,33.0,20.8,34.8,29.3,19.1,95,87,75,30.37,30.18,10,2,13,0.00
2013-1-6,39.0,32.9,23.1,35.1,28.9,21.6,94,86,71,30.42,30.10,21,4,21,0.00
2013-1-7,42.9,29.5,18.9,32.2,25.0,17.2,95,85,60,30.47,30.22,5,1,8,0.00
2013-1-8,50.8,36.1,22.8,38.4,31.3,21.3,96,84,55,30.27,30.16,7,1,12,0.00
2013-1-9,58.0,47.1,40.8,50.6,43.3,37.3,98,87,66,30.46,30.22,7,1,11,0.20
2013-1-10,63.9,50.7,43.3,61.9,47.9,37.6,99,90,73,30.45,29.81,17,3,25,0.24
2013-1-11,62.7,57.2,51.8,60.0,52.5,48.2,94,85,70,29.94,29.81,16,5,21,0.01
2013-1-12,64.0,55.2,38.0,60.1,53.1,36.6,97,93,81,29.94,29.70,22,4,30,2.06
2013-1-13,38.0,30.7,23.4,36.6,28.5,19.2,96,92,83,30.36,29.84,16,3,23,0.51
2013-1-14,27.6,24.0,20.2,23.1,19.8,16.9,89,84,79,30.50,30.36,0,0,0,0.00
2013-1-15,30.1,26.6,21.2,26.4,22.9,18.7,92,86,80,30.40,30.13,9,2,10,0.00
2013-1-16,38.8,31.6,27.1,27.6,25.9,21.4,91,80,51,30.16,30.07,9,3,12,0.04
2013-1-17,42.7,34.7,27.0,37.9,29.7,24.1,92,82,73,30.51,30.15,17,4,22,0.07
2013-1-18,47.7,35.2,23.1,34.5,28.1,21.5,95,77,50,30.55,30.23,21,4,22,0.01
2013-1-19,56.1,46.6,39.4,42.3,36.4,30.7,85,68,55,30.23,29.97,23,8,26,0.00
2013-1-20,42.8,35.3,26.0,38.0,25.7,19.0,86,68,49,30.33,30.10,12,4,19,0.00
2013-1-21,30.4,25.0,18.6,21.0,14.2,6.1,80,64,48,30.40,30.26,22,8,25,0.00
2013-1-22,22.7,19.7,15.5,15.0,6.4,1.8,79,56,46,30.51,30.39,9,2,12,0.00
2013-1-23,44.5,28.8,15.5,29.6,20.5,12.8,92,73,46,30.41,30.15,10,2,15,0.00
2013-1-24,32.0,26.4,20.1,24.6,13.3,8.1,76,58,43,30.60,30.28,15,5,22,0.00
2013-1-25,41.6,32.8,28.4,29.0,21.5,9.5,84,63,43,30.28,30.13,10,2,13,0.00
2013-1-26,40.3,32.4,27.2,26.9,22.7,19.0,87,69,43,30.40,30.24,7,1,9,0.00
2013-1-27,50.3,36.6,25.4,48.0,33.8,20.8,97,90,73,30.34,30.05,8,2,14,0.21
2013-1-28,64.2,58.8,49.8,60.0,56.4,47.5,95,92,84,30.06,29.95,15,5,22,0.11
2013-1-29,70.3,63.8,53.3,62.6,59.5,52.1,96,86,71,29.95,29.36,23,9,46,1.23
2013-1-30,55.7,44.1,30.6,52.4,40.2,21.7,98,86,69,29.93,29.39,30,12,46,0.30
2013-1-31,39.8,30.3,18.4,31.6,22.8,9.9,94,74,62,30.37,29.92,29,12,35,0.00
2013-2-1,28.6,20.6,13.1,16.7,9.8,4.2,75,63,45,30.55,30.32,21,6,24,0.00
2013-2-2,43.9,34.4,26.5,31.6,25.3,16.3,89,69,53,30.32,30.07,18,6,22,0.00
2013-2-3,34.9,30.5,25.0,30.7,25.9,21.5,97,84,65,30.19,30.02,20,4,28,0.08
2013-2-4,48.1,38.2,26.8,42.5,32.9,21.9,95,81,63,30.07,29.82,17,4,22,0.02
2013-2-5,56.3,39.3,26.9,41.2,33.2,25.8,96,81,55,30.12,29.90,11,2,12,0.00
2013-2-6,51.4,39.5,26.2,36.4,32.4,24.9,96,77,54,30.26,30.10,7,1,9,0.00
2013-2-7,66.6,48.2,31.7,52.4,41.8,29.6,95,80,54,30.10,29.82,14,3,20,0.21
2013-2-8,43.9,37.7,33.0,41.7,33.7,27.8,93,86,78,30.39,29.99,16,6,22,0.00
2013-2-9,47.3,38.3,32.4,37.4,31.3,27.3,90,76,57,30.39,30.05,8,2,9,0.06
2013-2-10,57.0,49.3,40.1,54.0,45.8,37.4,95,88,70,30.05,29.65,14,4,22,0.45
2013-2-11,52.9,44.3,34.0,42.0,32.5,28.4,82,64,44,30.15,29.80,21,7,29,0.00
2013-2-12,48.8,38.6,26.8,37.4,32.2,25.3,95,79,56,30.17,29.91,6,1,8,0.00
2013-2-13,52.1,42.2,36.2,39.1,36.2,31.8,95,81,47,29.92,29.84,11,4,15,0.07
2013-2-14,58.2,45.7,35.8,42.7,37.4,33.9,95,75,51,30.04,29.87,14,4,18,0.00
2013-2-15,42.7,36.5,26.8,37.1,26.3,19.4,90,68,45,30.24,30.04,17,4,21,0.00
2013-2-16,36.5,29.1,23.4,25.1,20.1,15.9,90,70,46,30.26,30.19,17,4,19,0.00
2013-2-17,48.2,33.8,19.4,31.1,24.1,17.4,94,70,45,30.24,30.01,8,2,14,0.00
2013-2-18,56.1,47.6,39.0,48.6,41.7,29.1,95,81,65,30.01,29.62,27,9,33,0.51
2013-2-19,41.4,34.0,26.7,37.8,23.8,18.2,87,67,45,30.30,29.86,23,11,30,0.00
2013-2-20,28.8,25.7,22.6,20.4,17.7,14.1,82,71,65,30.41,30.30,9,3,12,0.00
2013-2-21,33.6,28.2,23.0,32.4,24.4,17.8,96,85,72,30.33,29.83,14,2,19,0.02
2013-2-22,39.5,34.3,27.9,35.8,31.5,25.0,97,90,79,30.09,29.83,16,4,17,0.34
2013-2-23,39.6,30.5,24.5,30.3,25.4,22.0,92,82,61,30.08,29.98,10,2,11,0.02
2013-2-24,48.8,35.8,22.8,33.1,27.9,21.3,96,75,50,30.16,30.03,7,1,8,0.00
2013-2-25,52.5,42.1,30.1,36.0,31.4,27.3,90,67,46,30.07,29.55,17,4,23,0.05
2013-2-26,52.3,43.4,39.1,45.6,40.5,36.1,97,90,73,29.60,29.33,14,6,23,0.38
2013-2-27,36.8,34.9,32.9,34.6,32.1,30.1,93,89,84,29.90,29.81,23,10,23,0.02
2013-2-28,38.2,34.6,32.9,33.8,31.4,28.9,95,88,83,30.10,29.89,15,8,20,0.00
2013-3-1,36.4,33.4,31.2,34.5,31.8,29.3,97,94,90,30.15,30.06,12,5,18,0.10
2013-3-2,34.4,30.9,28.0,29.3,26.1,21.5,92,82,66,30.23,30.14,14,6,19,0.01
2013-3-3,39.7,32.2,22.5,28.4,23.5,19.7,90,71,53,30.22,30.08,7,2,10,0.00
2013-3-4,53.2,44.6,35.9,39.4,32.5,26.4,75,63,50,30.10,29.77,11,3,17,0.00
2013-3-5,47.2,37.9,32.7,40.0,33.2,26.0,96,84,69,30.07,29.76,31,11,35,0.11
2013-3-6,41.7,35.2,28.7,33.0,28.3,25.5,88,76,67,30.35,30.07,23,8,33,0.00
2013-3-7,46.3,35.0,25.7,33.0,28.5,23.7,94,78,58,30.43,30.33,6,1,8,0.00
2013-3-8,53.3,40.7,27.1,35.3,31.5,25.3,95,72,47,30.46,30.22,9,2,13,0.00
2013-3-9,66.8,52.6,41.2,43.8,37.2,32.3,74,57,40,30.23,29.87,11,3,17,0.00
2013-3-10,65.3,56.7,48.3,54.8,48.0,39.5,97,75,47,29.87,29.67,20,6,29,0.42
2013-3-11,50.6,40.7,36.7,49.7,37.0,30.4,97,87,77,30.01,29.68,17,7,20,0.01
2013-3-12,51.6,40.1,29.8,34.3,29.9,26.0,89,69,46,30.20,30.01,16,8,24,0.00
2013-3-13,42.0,34.9,27.4,29.3,25.1,20.5,90,68,52,30.43,30.20,22,8,24,0.00
2013-3-14,44.4,34.7,23.6,36.2,28.1,21.8,95,78,57,30.42,30.14,11,2,15,0.00
2013-3-15,74.8,51.6,28.7,54.7,41.8,27.2,97,73,36,30.13,29.70,15,2,21,0.00
2013-3-16,65.4,52.7,40.2,52.8,45.3,35.7,87,77,61,30.02,29.66,19,6,23,0.00
2013-3-17,40.1,37.6,34.5,38.2,36.0,33.1,96,94,84,30.08,29.76,10,3,16,0.95
2013-3-18,48.5,43.0,37.9,42.5,40.1,34.7,98,90,75,29.99,29.65,18,6,23,0.44
2013-3-19,49.7,39.9,29.3,35.1,27.7,22.7,85,63,35,30.22,30.00,14,4,20,0.15
2013-3-20,38.9,34.0,26.9,31.2,25.2,18.2,90,71,55,30.25,30.13,23,6,26,0.01
2013-3-21,39.1,31.1,23.8,24.3,20.2,16.7,81,64,47,30.13,30.00,9,3,12,0.00
2013-3-22,42.2,36.9,32.4,28.4,25.0,21.7,70,62,51,30.06,29.99,9,2,10,0.00
2013-3-23,56.9,46.3,38.0,40.7,32.4,25.7,84,59,45,30.03,29.77,9,2,15,0.01
2013-3-24,45.1,36.9,32.5,41.1,34.7,31.6,97,92,78,29.78,29.43,24,8,29,0.29
2013-3-25,37.8,33.4,30.8,35.4,31.3,29.1,98,92,79,30.18,29.76,21,13,27,0.01
2013-3-26,42.6,35.6,28.6,34.4,29.5,25.9,92,79,59,30.37,30.18,16,6,17,0.00
2013-3-27,50.7,37.6,25.2,34.6,29.6,23.7,96,75,47,30.42,30.30,10,1,14,0.00
2013-3-28,57.8,46.4,37.4,41.9,34.1,29.0,88,63,46,30.39,30.24,8,2,9,0.00
2013-3-29,56.2,48.4,41.1,49.5,44.3,36.2,96,86,62,30.28,30.18,5,1,7,0.14
2013-3-30,56.4,47.2,37.5,49.1,44.5,36.4,98,91,74,30.21,29.91,9,1,13,0.32
2013-3-31,66.9,55.1,48.7,54.0,49.3,45.4,98,83,52,29.93,29.83,16,2,18,0.00
2013-4-1,54.1,45.3,36.5,46.2,34.5,29.1,84,66,46,30.21,29.89,12,5,19,0.00
2013-4-2,48.3,38.6,30.4,30.0,26.3,20.0,89,64,33,30.35,30.21,11,2,12,0.00
2013-4-3,53.3,42.3,30.3,33.9,27.5,22.4,91,59,33,30.38,30.23,10,2,14,0.00
2013-4-4,61.2,47.1,32.9,38.2,29.9,25.5,85,54,28,30.23,30.01,10,2,10,0.00
2013-4-5,67.2,50.8,34.4,47.0,38.7,32.3,93,67,35,30.14,30.04,12,2,20,0.00
2013-4-6,73.6,60.5,43.5,47.7,42.7,37.8,85,55,31,30.07,29.81,20,6,29,0.00
2013-4-7,76.8,66.9,59.1,60.4,54.1,47.3,87,64,53,29.92,29.83,15,5,23,0.00
2013-4-8,75.1,66.7,59.3,61.6,57.7,53.9,89,74,57,29.89,29.79,21,5,27,0.00
2013-4-9,82.3,71.3,61.6,66.1,62.2,56.9,86,74,54,29.95,29.82,17,5,26,0.00
2013-4-10,82.4,74.8,65.2,71.6,67.0,62.9,94,77,62,29.85,29.62,23,6,28,0.31
2013-4-11,66.4,53.3,41.8,64.4,50.6,35.7,97,91,78,29.76,29.55,14,6,22,0.41
2013-4-12,55.0,44.4,36.8,42.0,36.5,34.1,91,75,54,30.04,29.74,17,5,21,0.00
2013-4-13,64.8,50.1,34.3,46.4,39.6,32.4,95,70,43,30.09,29.93,13,2,16,0.00
2013-4-14,76.7,62.0,46.6,57.8,48.7,41.9,87,64,40,29.94,29.69,12,3,22,0.00
2013-4-15,77.4,66.7,57.9,64.8,58.9,52.0,84,76,63,29.90,29.77,12,2,16,0.00
2013-4-16,69.3,59.5,53.2,62.1,55.8,50.1,94,88,76,30.09,29.83,11,3,23,0.00
2013-4-17,84.2,68.4,53.9,72.8,62.6,52.3,98,83,58,30.09,29.75,16,3,20,0.06
2013-4-18,76.2,66.8,45.0,67.9,61.3,41.1,97,83,68,29.75,29.58,26,9,34,1.07
2013-4-19,52.3,44.5,39.9,41.3,34.6,31.1,87,69,48,30.08,29.71,23,8,32,0.40
2013-4-20,58.6,46.9,34.3,41.0,35.8,32.2,94,67,39,30.34,30.08,10,2,13,0.11
2013-4-21,63.9,52.1,40.8,43.5,37.5,33.3,78,59,41,30.43,30.26,8,1,13,0.07
2013-4-22,73.6,57.6,39.3,54.4,45.7,37.3,95,68,39,30.27,30.00,10,1,13,0.05
2013-4-23,70.4,58.3,44.3,63.4,53.5,42.7,95,85,70,30.03,29.79,17,4,23,0.03
2013-4-24,52.7,44.6,39.3,42.8,39.5,34.8,96,84,54,30.27,29.93,16,4,21,0.02
2013-4-25,63.7,50.2,36.4,46.8,40.9,34.9,95,73,44,30.35,30.26,13,3,18,0.09
2013-4-26,56.7,51.7,45.0,50.0,45.8,40.4,96,81,66,30.41,30.26,6,1,12,0.03
2013-4-27,56.8,53.7,50.2,56.2,52.5,49.1,98,96,91,30.32,29.90,5,1,11,0.06
2013-4-28,59.9,56.3,54.0,56.0,54.3,53.0,98,93,82,29.94,29.87,12,4,13,0.02
2013-4-29,74.8,61.1,46.4,62.8,55.8,45.5,99,85,63,29.98,29.84,12,1,13,0.03
2013-4-30,83.3,69.3,54.4,65.3,59.3,53.2,97,74,46,29.95,29.85,9,2,14,0.04
2013-5-1,81.5,68.9,53.7,67.9,60.3,52.3,97,76,47,30.06,29.94,3,0,12,0.09
2013-5-2,79.2,66.3,55.3,65.0,60.1,53.7,98,82,55,30.11,30.01,9,2,13,0.03
2013-5-3,55.2,49.6,43.1,54.0,48.6,42.0,98,97,95,30.04,29.76,9,3,14,0.64
2013-5-4,53.1,46.4,42.2,45.4,42.4,41.1,97,87,69,29.99,29.85,7,1,12,0.03
2013-5-5,60.2,52.5,45.5,57.5,51.4,44.4,99,96,89,29.97,29.84,6,1,9,0.02
2013-5-6,64.1,58.1,53.2,60.4,55.8,51.8,98,92,81,29.94,29.84,7,1,10,0.02
2013-5-7,75.8,63.0,51.3,65.1,58.0,50.4,99,86,57,30.01,29.93,4,0,11,0.01
2013-5-8,82.0,67.1,50.9,65.1,57.9,50.0,99,76,37,30.03,29.94,5,1,8,0.01
2013-5-9,81.3,71.8,62.8,67.4,61.5,55.1,94,72,43,29.97,29.83,20,4,28,0.01
2013-5-10,75.2,67.2,59.1,67.6,62.2,54.9,96,85,71,29.96,29.81,12,3,16,0.00
2013-5-11,71.7,60.6,50.1,59.4,50.6,39.5,90,72,38,30.12,29.93,15,4,22,0.01
2013-5-12,63.6,52.7,40.9,42.5,38.5,31.8,88,62,36,30.22,30.12,15,2,25,0.03
2013-5-13,72.1,56.6,40.0,52.3,42.9,36.2,98,66,29,30.24,30.07,8,1,11,0.00
2013-5-14,87.8,71.9,52.6,66.2,57.9,46.6,86,64,46,30.07,29.82,14,4,18,0.00
2013-5-15,86.9,76.8,66.6,66.4,62.4,58.4,75,62,48,29.96,29.83,16,4,19,0.00
2013-5-16,82.6,72.7,65.4,68.5,64.8,61.9,97,77,52,29.95,29.85,10,2,12,0.05
2013-5-17,68.1,66.3,64.5,65.0,63.9,63.0,95,92,89,29.94,29.91,0,0,12,0.01
2013-5-18,83.0,71.7,60.7,71.0,65.7,59.7,99,83,61,29.99,29.88,4,0,6,0.07
2013-5-19,89.0,78.2,68.3,77.8,71.0,65.7,94,80,63,29.89,29.76,7,1,14,0.00
2013-5-20,87.6,79.0,72.5,73.7,70.6,68.7,90,76,58,29.89,29.73,11,3,18,0.00
2013-5-21,80.9,70.5,64.6,70.1,65.9,62.1,97,86,67,29.85,29.68,18,3,27,0.00
2013-5-22,78.6,70.3,63.8,66.4,63.3,59.7,95,79,58,29.85,29.69,12,4,18,0.00
2013-5-23,69.3,62.4,55.4,60.6,56.5,51.2,92,82,68,30.19,29.85,15,4,21,0.36
2013-5-24,71.3,57.8,43.7,51.1,45.9,39.5,91,67,39,30.38,30.19,7,1,9,0.00
2013-5-25,74.4,62.0,46.4,58.5,51.5,45.3,98,72,43,30.35,30.12,5,0,13,0.00
2013-5-26,82.6,71.1,58.6,66.5,59.9,53.3,83,69,54,30.18,30.02,6,1,10,0.00
2013-5-27,85.1,72.8,62.2,68.5,63.7,59.4,94,75,45,30.03,29.82,17,3,22,0.02
2013-5-28,87.6,78.2,68.9,69.6,66.3,62.7,82,68,50,29.94,29.83,22,5,28,0.00
2013-5-29,87.6,77.7,65.0,71.1,66.1,61.6,90,69,49,29.99,29.86,14,2,21,0.00
2013-5-30,84.7,77.9,70.4,72.9,70.0,68.0,96,77,63,29.93,29.83,13,3,20,0.16
2013-5-31,82.5,74.5,65.9,73.3,69.9,64.5,98,86,67,29.90,29.77,10,2,18,0.13
2013-6-1,77.5,67.7,64.3,73.4,65.5,63.4,98,93,80,29.92,29.70,10,2,22,1.53
2013-6-2,72.2,66.2,60.0,65.6,62.0,58.5,96,87,74,29.98,29.86,7,2,12,0.00
2013-6-3,72.4,64.4,57.9,61.3,57.6,54.3,95,80,56,30.06,29.96,5,1,7,0.00
2013-6-4,79.3,66.3,52.6,65.5,58.5,51.4,98,78,52,30.08,29.96,5,0,7,0.00
2013-6-5,84.3,72.3,59.5,68.8,63.9,58.3,98,77,48,29.98,29.79,5,0,6,0.00
2013-6-6,82.4,73.6,66.9,70.6,65.8,62.8,93,78,57,29.81,29.75,8,2,12,0.01
2013-6-7,79.3,69.8,62.4,67.6,62.4,59.4,92,78,59,29.87,29.78,10,2,14,0.00
2013-6-8,80.8,69.5,57.4,65.3,60.2,56.2,98,75,45,29.96,29.86,7,1,9,0.00
2013-6-9,79.5,70.5,63.6,71.1,64.2,60.0,97,81,61,29.95,29.78,10,1,15,0.03
2013-6-10,80.5,70.6,61.7,68.8,65.3,60.5,98,85,61,29.90,29.78,15,2,16,0.09
2013-6-11,92.8,77.9,60.1,76.8,69.9,59.2,99,79,55,29.97,29.85,9,1,16,0.00
2013-6-12,93.7,85.3,75.7,77.6,74.2,71.4,88,71,55,29.96,29.74,20,5,26,0.00
2013-6-13,86.6,79.4,72.8,73.4,69.3,64.6,84,72,50,29.91,29.73,15,5,25,0.00
2013-6-14,86.0,72.9,60.1,66.2,61.7,57.5,93,70,45,30.06,29.92,7,0,9,0.00
2013-6-15,88.6,76.6,64.3,70.6,66.4,62.4,95,73,50,30.07,29.92,8,1,11,0.00
2013-6-16,87.6,77.2,70.7,74.4,70.4,67.1,93,81,58,29.99,29.89,11,1,14,0.00
2013-6-17,87.8,72.9,66.2,76.1,69.2,64.1,98,89,62,29.93,29.83,11,1,21,1.01
2013-6-18,88.6,74.9,61.8,74.5,67.5,60.9,99,80,50,29.94,29.85,8,1,10,0.00
2013-6-19,87.5,76.3,64.9,73.8,68.5,63.4,97,79,53,30.02,29.92,3,0,6,0.00
2013-6-20,87.3,75.8,67.0,76.7,70.0,65.8,98,84,58,30.10,30.02,4,0,9,0.07
2013-6-21,90.1,84.7,76.7,76.3,73.3,70.2,85,70,55,30.09,30.01,8,1,13,0.00
2013-6-22,89.3,77.7,68.3,77.1,71.0,66.0,96,81,57,30.10,29.96,15,2,22,0.11
2013-6-23,89.9,74.9,66.9,76.3,69.5,65.5,97,84,59,30.08,29.96,23,2,30,0.24
2013-6-24,90.6,77.7,68.0,77.4,72.1,67.0,98,84,58,30.08,29.95,8,1,15,0.00
2013-6-25,93.3,83.2,73.9,76.8,74.3,72.0,95,76,55,29.98,29.79,13,3,21,0.00
2013-6-26,78.8,76.8,75.1,74.2,71.7,70.7,93,84,82,29.88,29.81,6,1,10,0.07
2013-6-27,77.9,77.2,76.4,73.2,72.8,72.6,90,86,84,29.81,29.78,4,1,5,0.00
2013-6-28,90.2,80.1,70.7,74.4,68.6,60.3,94,71,40,29.81,29.65,15,3,21,0.00
2013-6-29,84.4,73.2,65.1,68.7,64.6,62.0,94,76,52,29.68,29.58,16,4,30,0.27
2013-6-30,78.4,68.8,64.7,70.9,66.0,63.1,96,91,75,29.83,29.67,8,1,13,0.15
2013-7-1,71.2,67.0,63.8,68.0,65.3,62.9,98,95,86,29.90,29.81,6,1,14,0.55
2013-7-2,67.0,65.7,64.0,66.4,64.9,63.4,98,97,95,30.00,29.85,11,2,14,1.12
2013-7-3,80.8,70.1,63.3,67.4,63.8,61.4,97,82,54,30.08,29.98,4,1,10,0.00
2013-7-4,84.0,72.2,59.8,71.2,65.7,59.0,99,82,56,30.07,29.97,4,0,7,0.00
2013-7-5,81.5,73.1,64.4,71.8,68.2,63.6,99,86,69,30.06,29.98,5,0,7,0.00
2013-7-6,86.0,74.9,65.1,73.4,69.4,61.2,97,84,61,30.07,29.95,6,1,14,0.42
2013-7-7,88.6,75.8,63.2,76.1,70.4,62.3,98,85,62,30.06,29.98,5,0,7,0.00
2013-7-8,89.5,79.5,71.2,77.7,73.2,69.1,95,82,61,30.09,30.00,7,1,11,0.00
2013-7-9,93.9,83.7,74.6,79.7,76.0,72.2,95,79,57,30.04,29.91,8,1,12,0.00
2013-7-10,86.6,80.0,74.9,76.9,74.9,73.2,96,85,70,29.95,29.86,11,2,14,0.00
2013-7-11,85.4,75.6,64.8,73.7,67.2,61.4,98,78,50,30.01,29.91,4,0,10,0.00
2013-7-12,85.3,72.4,61.4,67.8,63.0,60.2,97,75,45,30.08,29.99,6,0,9,0.00
2013-7-13,85.9,73.5,60.7,69.1,64.3,59.3,98,75,50,30.05,29.97,6,0,10,0.00
2013-7-14,87.2,75.2,63.6,75.4,69.8,62.1,97,84,63,30.11,30.01,5,0,9,0.09
2013-7-15,87.0,78.6,71.4,79.0,74.4,70.4,98,88,72,30.21,30.10,5,0,9,0.02
2013-7-16,91.9,81.2,70.7,77.3,74.2,69.8,98,81,58,30.27,30.19,4,0,5,0.00
2013-7-17,95.6,83.0,71.6,79.0,74.8,70.6,98,79,49,30.30,30.14,5,0,7,0.00
2013-7-18,93.2,82.9,73.1,79.7,76.4,72.1,98,82,58,30.18,30.00,3,0,5,0.00
2013-7-19,91.6,81.9,71.8,77.4,73.9,70.8,98,78,57,30.01,29.86,9,1,12,0.00
2013-7-20,93.4,79.1,70.0,78.5,73.1,69.1,97,83,59,29.91,29.75,16,2,20,1.17
2013-7-21,86.0,75.5,70.0,78.0,72.3,69.1,99,91,70,29.92,29.82,5,0,10,0.14
2013-7-22,88.9,78.2,70.5,78.1,73.7,69.7,98,87,64,29.84,29.76,8,2,12,0.01
2013-7-23,91.2,80.8,72.8,81.0,75.0,67.6,97,84,66,29.85,29.71,11,2,20,0.05
2013-7-24,82.7,73.2,63.5,68.9,64.7,59.8,96,76,51,29.99,29.83,7,0,9,0.00
2013-7-25,82.8,70.1,58.4,68.4,61.9,57.2,97,78,49,30.08,29.98,4,0,7,0.00
2013-7-26,79.4,69.0,58.9,69.4,64.7,58.0,98,87,62,30.05,29.94,5,1,8,0.04
2013-7-27,79.0,70.8,59.5,69.4,64.2,54.9,97,81,52,29.97,29.90,11,2,17,0.19
2013-7-28,79.5,66.7,52.7,63.6,58.0,51.8,98,76,50,30.04,29.96,7,1,16,0.00
2013-7-29,78.7,69.3,59.2,69.6,64.1,58.0,98,85,63,30.15,30.03,6,0,8,0.00
2013-7-30,71.9,69.2,66.8,70.9,67.4,64.1,98,94,87,30.12,29.99,4,0,6,1.31
2013-7-31,85.5,74.9,69.8,77.2,72.0,68.3,99,91,74,30.01,29.91,6,0,10,0.01
2013-8-1,86.4,74.4,64.9,74.6,68.5,64.3,99,84,53,30.04,29.96,5,1,11,0.00
2013-8-2,85.8,72.7,61.9,73.4,68.4,61.3,99,87,63,29.99,29.90,7,1,12,0.07
2013-8-3,88.0,75.8,69.7,79.8,72.4,68.1,99,90,70,30.06,29.89,6,0,11,0.10
2013-8-4,82.1,71.4,62.9,69.2,65.2,61.8,98,82,56,30.15,30.05,4,0,6,0.00
2013-8-5,72.6,67.6,61.6,68.0,65.1,60.7,98,92,74,30.08,29.89,6,0,8,0.41
2013-8-6,83.3,75.3,69.3,76.2,71.7,67.4,98,89,71,29.92,29.85,9,1,12,0.00
2013-8-7,84.1,75.3,69.9,76.2,72.0,69.0,99,90,71,29.92,29.81,7,1,13,0.02
2013-8-8,85.5,74.5,67.3,78.2,72.3,66.7,99,93,75,29.95,29.82,7,0,15,0.37
2013-8-9,81.8,74.4,71.3,76.0,72.7,70.8,99,95,77,30.02,29.88,3,0,6,0.26
2013-8-10,88.5,76.6,70.5,75.1,71.8,68.8,99,87,57,30.10,30.00,3,0,6,0.05
2013-8-11,85.7,74.7,65.0,75.1,69.2,64.1,98,84,58,30.11,30.01,4,0,8,0.00
2013-8-12,85.7,75.7,69.5,79.3,73.2,68.6,99,92,77,30.04,29.87,7,1,7,0.36
2013-8-13,82.8,73.5,65.2,74.6,69.5,59.5,99,88,69,30.06,29.90,5,1,9,0.01
2013-8-14,75.6,63.8,54.7,60.7,55.9,52.1,95,77,53,30.16,30.06,6,0,10,0.00
2013-8-15,77.2,63.2,53.9,64.0,57.1,52.7,97,82,56,30.13,30.04,10,0,10,0.00
2013-8-16,77.5,65.7,53.3,67.2,60.4,52.4,98,84,62,30.10,30.06,3,0,8,0.00
2013-8-17,80.0,69.4,63.6,71.5,65.0,60.9,95,86,70,30.14,30.06,3,0,8,0.00
2013-8-18,83.8,72.3,65.7,71.1,67.5,64.8,98,86,62,30.13,30.03,3,0,8,0.02
2013-8-19,85.9,72.1,61.9,72.5,67.2,61.3,99,86,57,30.11,30.00,3,0,6,0.00
2013-8-20,87.5,74.6,63.3,75.6,69.3,62.6,99,85,60,30.09,30.00,5,0,7,0.00
2013-8-21,90.0,76.2,64.9,75.6,70.5,64.3,99,84,55,30.12,30.01,5,0,7,0.00
2013-8-22,91.1,77.6,66.3,79.1,73.0,65.4,99,87,57,30.08,29.97,7,1,12,0.08
2013-8-23,91.7,78.0,69.4,80.7,73.0,68.6,99,86,60,30.07,29.99,4,0,6,0.00
2013-8-24,88.2,75.9,64.4,75.5,69.0,63.5,98,81,53,30.18,30.06,5,0,7,0.00
2013-8-25,91.2,75.4,60.7,76.7,69.5,59.8,99,84,53,30.24,30.14,5,0,6,0.00
2013-8-26,91.3,79.5,69.4,78.8,73.9,68.5,99,85,60,30.21,30.06,7,1,10,0.00
2013-8-27,90.2,80.2,71.8,79.2,74.8,70.2,96,84,66,30.08,29.97,6,1,9,0.00
2013-8-28,92.5,80.6,69.8,77.7,72.7,68.1,97,79,51,30.01,29.94,8,1,12,0.00
2013-8-29,94.7,81.7,71.3,80.8,74.7,69.9,97,81,52,30.00,29.91,6,1,7,0.00
2013-8-30,96.0,82.3,71.8,79.8,75.0,70.6,98,81,46,29.94,29.81,6,1,9,0.00
2013-8-31,96.6,85.3,75.8,81.2,76.6,73.6,94,77,54,29.83,29.70,10,2,12,0.00
2013-9-1,89.7,79.8,73.1,77.4,74.7,71.6,97,85,65,29.81,29.71,15,2,19,0.00
2013-9-2,87.8,76.2,65.7,74.5,69.7,63.5,98,82,51,29.90,29.79,5,1,11,0.01
2013-9-3,85.6,70.7,60.4,68.7,63.7,59.0,98,81,52,30.04,29.90,8,0,8,0.00
2013-9-4,84.2,68.9,55.9,67.2,61.6,55.0,99,80,53,30.14,30.04,5,0,7,0.00
2013-9-5,86.1,69.4,55.0,68.4,62.4,54.1,99,81,47,30.18,30.10,3,0,6,0.00
2013-9-6,88.7,73.3,60.4,72.1,66.2,59.5,99,81,52,30.15,30.02,5,0,7,0.00
2013-9-7,89.6,74.6,59.8,74.0,67.5,58.9,99,81,53,30.05,29.91,8,1,13,0.00
2013-9-8,83.7,75.6,68.8,75.9,71.4,66.6,95,87,75,29.97,29.88,3,0,7,0.00
2013-9-9,96.0,81.4,70.3,79.2,74.3,69.4,99,81,46,29.96,29.89,10,1,13,0.00
2013-9-10,92.8,81.5,71.6,76.5,74.3,70.3,98,80,54,30.07,29.96,6,1,16,0.00
2013-9-11,96.0,81.9,70.8,76.8,73.0,69.2,97,77,43,30.12,30.00,6,1,8,0.00
2013-9-12,87.9,76.5,65.4,73.3,69.1,59.0,97,79,50,30.05,29.93,11,1,12,0.00
2013-9-13,78.7,64.7,52.8,60.1,55.0,49.0,96,73,46,30.08,29.99,7,0,14,0.00
2013-9-14,76.0,60.1,46.7,54.1,49.9,44.8,97,73,39,30.15,30.03,5,0,9,0.00
2013-9-15,81.8,64.3,46.6,62.0,54.7,45.5,99,75,43,30.09,29.99,8,1,10,0.00
2013-9-16,77.1,67.9,60.1,66.7,62.5,57.2,95,84,66,30.20,30.04,4,0,7,0.00
2013-9-17,82.2,68.4,58.1,67.1,61.6,56.3,94,80,52,30.21,30.06,4,0,8,0.00
2013-9-18,86.7,73.7,65.7,73.7,68.0,62.8,94,84,61,30.09,29.95,8,1,13,0.00
2013-9-19,89.0,78.7,71.2,76.0,72.4,69.1,94,82,61,30.02,29.87,12,2,16,0.00
2013-9-20,77.4,72.2,65.3,71.7,69.3,63.2,98,91,80,29.91,29.81,9,1,11,0.45
2013-9-21,75.5,63.2,52.6,63.5,55.3,51.3,96,78,48,29.91,29.84,9,1,13,0.00
2013-9-22,78.4,60.1,46.6,57.1,52.0,45.7,99,79,40,29.99,29.90,3,0,8,0.00
2013-9-23,77.5,61.0,46.4,57.1,52.0,45.3,99,76,41,30.03,29.91,5,0,11,0.00
2013-9-24,82.2,66.1,50.1,69.5,60.7,48.7,98,84,63,29.94,29.79,5,0,9,0.00
2013-9-25,82.7,71.1,62.9,69.2,65.5,61.4,98,84,58,29.85,29.78,5,0,9,0.00
2013-9-26,84.1,68.7,57.0,68.4,62.0,56.2,99,82,48,30.00,29.84,4,0,8,0.00
2013-9-27,83.9,67.0,52.7,63.9,57.8,51.8,99,76,39,30.11,29.99,5,0,9,0.00
2013-9-28,83.9,69.5,54.7,66.2,60.2,53.5,97,75,47,30.08,29.97,13,2,17,0.00
2013-9-29,71.7,65.6,62.3,64.8,63.2,60.8,98,92,69,30.02,29.95,6,0,10,0.15
2013-9-30,74.8,67.4,64.3,68.7,65.0,63.3,97,92,78,29.97,29.90,4,0,9,0.01
2013-10-1,77.5,70.2,62.5,71.9,67.6,61.3,98,92,80,30.03,29.95,6,0,9,0.00
2013-10-2,81.6,72.0,65.1,75.5,69.4,64.2,99,92,76,30.06,29.96,9,1,15,0.03
2013-10-3,85.5,74.5,68.2,71.8,68.7,66.3,98,84,60,30.00,29.89,11,1,17,0.01
2013-10-4,85.9,74.5,69.0,74.5,70.5,66.9,98,88,64,30.01,29.91,12,1,20,0.04
2013-10-5,82.9,71.6,62.3,75.3,70.0,60.8,99,95,74,29.96,29.80,15,2,24,1.47
2013-10-6,68.1,58.4,49.2,60.6,50.0,44.0,96,75,49,29.92,29.79,15,4,20,0.00
2013-10-7,68.7,55.5,46.4,53.7,49.0,44.4,96,81,52,30.14,29.90,10,2,14,0.00
2013-10-8,71.9,56.3,44.0,54.2,49.1,43.2,99,80,44,30.21,30.11,10,0,10,0.00
2013-10-9,77.5,58.5,42.8,63.0,53.0,42.0,99,84,55,30.18,30.08,3,0,6,0.00
2013-10-10,80.6,64.5,54.0,67.1,59.8,53.1,99,87,56,30.14,30.00,8,1,10,0.00
2013-10-11,79.9,65.1,54.5,65.4,59.0,53.9,99,83,51,30.04,29.93,8,1,15,0.00
2013-10-12,73.0,63.4,56.4,68.3,61.5,55.2,98,94,84,30.14,29.96,8,0,9,0.20
2013-10-13,75.6,59.4,47.6,57.2,49.7,44.6,98,75,34,30.33,30.14,6,0,8,0.01
2013-10-14,69.6,57.5,46.5,59.7,51.1,41.7,95,80,64,30.30,30.06,3,0,8,0.00
2013-10-15,68.2,64.9,59.3,66.0,62.8,56.9,96,93,88,30.07,29.90,9,2,12,0.13
2013-10-16,64.9,56.3,46.8,59.6,49.6,44.4,94,79,55,30.03,29.93,9,3,14,0.00
2013-10-17,64.7,52.9,45.0,53.0,48.0,43.7,97,85,56,30.00,29.93,10,1,13,0.12
2013-10-18,67.0,53.2,40.8,53.2,47.1,40.0,98,82,54,30.04,29.94,10,1,11,0.01
2013-10-19,58.2,48.9,43.2,47.2,42.4,37.5,96,80,47,30.03,29.94,12,3,16,0.21
2013-10-20,67.1,52.4,40.4,48.3,43.7,38.5,95,75,48,30.02,29.93,12,2,21,0.00
2013-10-21,62.8,51.9,42.2,51.9,46.1,37.7,96,81,64,30.07,29.96,8,2,13,0.00
2013-10-22,59.8,46.8,32.9,48.2,39.6,31.8,98,79,48,30.08,29.81,14,2,18,0.05
2013-10-23,52.3,45.0,39.4,40.8,36.6,31.9,88,74,48,30.13,29.92,16,4,20,0.00
2013-10-24,51.2,42.4,31.5,39.8,33.7,27.0,93,74,42,30.41,30.12,15,2,20,0.00
2013-10-25,53.7,38.0,26.1,34.3,29.3,24.4,97,74,37,30.54,30.28,7,0,9,0.00
2013-10-26,62.3,48.9,35.9,45.9,37.9,29.9,87,67,52,30.28,30.00,12,3,19,0.00
2013-10-27,62.9,43.6,29.6,39.2,34.5,28.1,97,75,34,30.14,30.03,4,0,7,0.00
2013-10-28,69.9,48.0,31.1,48.3,39.5,30.0,98,77,37,30.25,30.07,3,0,6,0.00
2013-10-29,59.4,52.0,42.8,58.8,50.0,40.0,98,93,80,30.27,30.07,2,0,3,0.31
2013-10-30,76.4,68.2,58.7,67.8,64.1,58.1,99,87,69,30.08,29.88,15,3,22,0.05
2013-10-31,67.7,63.0,53.6,66.2,61.7,51.3,99,96,86,29.89,29.38,23,4,26,2.26
2013-11-1,64.9,54.6,47.0,52.9,48.0,44.0,97,80,51,29.84,29.64,13,3,19,0.00
2013-11-2,55.6,47.8,38.0,47.6,42.5,36.1,94,83,65,30.20,29.84,17,3,19,0.00
2013-11-3,59.6,44.9,31.3,44.2,36.9,30.5,98,77,42,30.32,30.18,3,0,8,0.00
2013-11-4,59.8,51.5,43.1,49.9,44.3,38.9,96,77,60,30.28,30.19,9,1,14,0.03
2013-11-5,65.6,57.4,50.3,53.9,50.4,48.4,97,79,60,30.31,30.08,6,1,12,0.02
2013-11-6,62.9,52.4,39.4,55.6,48.7,37.5,96,88,69,30.24,29.97,15,4,20,0.47
2013-11-7,54.1,41.9,33.6,40.6,36.3,32.0,96,82,55,30.40,30.24,8,2,14,0.00
2013-11-8,58.9,41.7,29.4,41.8,34.0,28.6,98,78,40,30.40,30.16,8,1,14,0.01
2013-11-9,67.0,53.4,38.9,47.7,43.2,35.3,94,70,46,30.21,30.10,14,3,20,0.00
2013-11-10,58.2,45.3,34.1,44.4,37.8,32.2,97,78,42,30.41,30.21,8,1,10,0.00
2013-11-11,63.2,47.4,33.7,48.5,37.9,32.3,97,74,41,30.41,30.13,17,3,23,0.02
2013-11-12,39.4,32.0,23.0,36.2,25.3,20.3,93,77,57,30.73,30.40,14,5,20,0.01
2013-11-13,46.0,31.2,19.2,26.8,21.8,17.5,95,72,36,30.73,30.39,6,1,10,0.00
2013-11-14,56.1,42.3,26.5,29.4,26.4,22.6,86,56,30,30.39,30.12,14,3,22,0.00
2013-11-15,52.9,48.2,40.4,47.8,37.1,26.8,91,66,49,30.13,29.99,6,2,9,0.00
2013-11-16,66.3,58.8,49.4,63.7,55.6,46.8,95,89,78,30.00,29.70,16,4,27,0.02
2013-11-17,76.3,65.7,52.4,68.9,55.2,32.7,98,73,34,29.93,29.45,23,8,37,1.72
2013-11-18,57.3,47.4,34.9,44.9,38.2,31.9,93,73,42,30.30,29.93,16,4,23,0.00
2013-11-19,47.8,38.1,30.6,33.2,30.8,29.0,95,77,52,30.36,30.23,5,0,7,0.00
2013-11-20,53.9,42.8,30.3,39.7,34.4,28.1,93,74,51,30.25,30.08,6,1,8,0.00
2013-11-21,54.0,51.6,48.2,51.8,47.3,38.5,98,86,64,30.20,30.11,8,1,10,1.00
2013-11-22,52.2,44.8,38.4,51.9,43.0,34.8,99,94,87,30.48,30.16,13,5,19,0.03
2013-11-23,39.8,32.2,22.6,35.1,25.5,14.9,93,77,58,30.72,30.47,15,7,24,0.00
2013-11-24,32.0,24.9,18.4,18.6,15.8,13.1,81,69,48,30.78,30.49,8,2,9,0.00
2013-11-25,36.4,32.9,27.9,29.2,23.3,18.3,83,68,55,30.50,30.19,8,2,10,0.00
2013-11-26,42.6,35.2,25.6,32.5,28.2,15.4,89,76,63,30.22,30.02,20,5,24,0.00
2013-11-27,30.2,23.7,18.6,17.6,14.1,11.0,88,67,49,30.38,30.20,19,5,24,0.00
2013-11-28,45.4,30.2,17.4,29.6,22.1,13.9,93,73,49,30.50,30.30,14,3,25,0.00
2013-11-29,48.9,34.3,23.9,31.2,26.8,21.6,94,76,49,30.61,30.42,5,1,6,0.00
2013-11-30,55.9,41.0,25.3,36.9,31.9,23.3,94,72,45,30.42,30.15,14,3,18,0.00
2013-12-1,60.0,46.4,35.2,46.4,39.9,33.6,95,79,59,30.16,29.92,4,1,6,0.00
2013-12-2,60.4,44.5,33.4,50.7,41.5,32.3,98,90,69,29.92,29.70,8,0,9,0.00
2013-12-3,60.7,49.7,40.3,53.9,47.7,39.2,99,93,75,29.75,29.67,4,1,12,0.00
2013-12-4,67.9,58.9,42.3,61.8,55.5,41.5,99,89,75,29.81,29.58,18,4,25,0.01
2013-12-5,52.0,34.0,24.5,47.0,31.1,23.0,95,89,80,30.28,29.81,19,3,20,0.24
2013-12-6,24.6,21.9,18.2,23.0,19.8,13.9,94,92,83,30.57,30.23,0,0,0,0.00
2013-12-7,20.4,14.4,2.4,15.7,10.5,0.0,91,84,78,30.72,30.46,0,0,0,0.00
2013-12-8,30.2,25.8,20.5,29.1,23.4,15.7,96,90,82,30.47,30.03,0,0,0,0.00
2013-12-9,29.2,26.7,22.0,27.0,22.0,17.3,93,83,67,30.32,30.12,13,2,15,0.00
2013-12-10,34.5,23.9,14.7,23.2,19.2,12.8,94,83,61,30.39,30.28,10,2,12,0.03
2013-12-11,33.9,21.3,9.0,26.7,16.9,5.4,95,84,71,30.68,30.37,15,3,19,0.03
2013-12-12,32.2,16.5,0.9,13.9,7.9,-1.0,89,71,42,30.68,30.36,8,2,10,0.00
2013-12-13,39.5,28.2,14.3,32.9,23.7,11.5,95,84,58,30.36,30.01,8,2,12,0.01
2013-12-14,36.1,34.1,30.3,34.6,32.4,27.2,98,94,87,30.14,29.83,17,5,22,0.21
2013-12-15,33.6,29.7,27.5,31.0,26.4,24.2,95,88,79,30.25,30.10,13,5,18,0.02
2013-12-16,49.1,37.6,32.6,37.4,33.3,30.8,96,85,62,30.11,30.02,9,2,10,0.28
2013-12-17,41.3,33.1,27.5,34.2,29.1,25.7,95,86,74,30.30,30.11,10,4,13,0.04
2013-12-18,48.0,37.5,23.9,36.5,28.5,21.9,94,71,44,30.31,30.01,11,3,17,0.01
2013-12-19,57.8,50.7,37.7,52.0,44.7,34.4,90,80,70,30.03,29.85,21,6,26,0.00
2013-12-20,64.7,58.7,45.2,62.1,55.6,44.1,97,90,82,29.85,29.76,18,7,25,1.61
2013-12-21,45.2,39.5,36.5,43.8,38.6,35.4,97,97,95,29.82,29.49,11,4,16,3.06
2013-12-22,42.1,37.6,32.9,40.9,35.3,29.5,98,92,83,30.25,29.64,22,7,22,0.01
2013-12-23,32.9,28.4,20.9,29.7,23.5,15.4,90,82,76,30.57,30.24,16,7,21,0.00
2013-12-24,25.7,19.4,13.1,15.6,11.0,6.5,81,70,51,30.66,30.42,16,3,19,0.00
2013-12-25,37.6,30.4,19.9,31.0,24.3,15.5,91,78,66,30.43,30.27,11,3,14,0.00
2013-12-26,47.6,35.1,24.7,32.6,28.8,22.9,96,80,45,30.43,30.32,8,2,11,0.00
2013-12-27,54.3,39.5,30.4,38.9,32.9,27.8,91,79,52,30.42,30.30,7,2,12,0.00
2013-12-28,50.9,41.7,33.2,39.1,35.2,30.3,91,79,58,30.31,29.95,10,2,11,0.00
2013-12-29,43.9,34.6,23.9,38.2,30.8,19.1,93,86,79,30.25,29.88,17,5,24,0.01
2013-12-30,27.2,22.1,16.1,20.4,14.8,11.5,87,74,56,30.37,30.25,10,3,15,0.00
2013-12-31,44.5,32.6,22.6,30.4,23.8,17.6,84,71,51,30.46,30.27,8,3,18,0.00
2014-1-1,45.0,38.1,30.3,35.5,32.3,27.3,95,80,63,30.27,29.97,12,2,16,0.03
2014-1-2,37.0,22.7,14.5,35.4,18.5,10.2,95,84,72,30.49,29.96,26,9,28,0.01